Back to catalog

STARLINK-5902

AliveCommunicationsVLEO
NORAD 55998·PAYLOAD·🇺🇸 United States

Launched Mar 24, 2023 from Cape Canaveral Space Force Station

Loading…

Next Passes (next 24 hours)

TLE

FreshSource: CelesTrak SupGP

Epoch: Sep 14, 2026, 21:33 UTC

1 55998C 23042N   26257.89840278  .00054359  00000+0  19693-2 0  2577
2 55998  43.0031  70.8610 0001473 262.5103 281.1939 15.27543831    18

Track STARLINK-5902 in real time with AllMySat

Download on the App Store